Location: Chuathbaluk
(61.5726°N, 159.2454°W)
Time: 12:04:09
(UTC+00:00)

N. Korean satellite - Pass Details

Date: 01 November 2020
Orbit: 453 x 503 km, 97.2° (Epoch: 04 December)

Event Time Altitude Azimuth Distance (km) Brightness Sun altitude
Rises 15:42:06 0° 21° (NNE) 2,490 10.5 -17.5°
Reaches altitude 10° 15:44:21 10° 33° (NNE) 1,608 9.6 -17.2°
Maximum altitude 15:47:23 28° 95° (E) 888 8.7 -16.9°
Drops below altitude 10° 15:50:23 10° 156° (SSE) 1,596 9.5 -16.5°
Sets 15:52:36 0° 169° (SSE) 2,467 10.3 -16.2°
